Flag for U.S.A. Weather past 2 weeks in Greeley, Colorado, U.S.A.

Now
54 °F

Sunny.


Feels Like: 54 °F
Forecast: 34 / 78 °F
Wind: No wind

Location: Greeley / Weld

Current Time: Mar 31, 2015 at 10:10:53 AM

Latest Report: Mar 31, 2015 at 9:35 AM


Visibility: 10 mi

Pressure: 30.05 "Hg

Humidity: 35%

Dew point: 27 °F

Location of GreeleyLocation

Historic Weather in Greeley — Graph

°F

Greeley temperature yesterday

Maximum temperature yesterday: 75 °F (at 2:35 PM)
Minimum temperature yesterday: 27 °F (at 6:15 AM)
Average temperature yesterday: 52 °F

Past Weeks' High & Low Weather Summary

 TemperatureHumidityPressure
High82 °F (Mar 16, 1:15 PM)81% (Mar 25, 10:15 PM)30.41 "Hg (Mar 25, 10:15 PM)
Low21 °F (Mar 20, 5:35 AM)10% (Mar 16, 1:35 PM)29.73 "Hg (Mar 23, 4:55 PM)
Average50 °F41%30.07 "Hg
* Reported Mar 16 8:15 AM — Mar 31 8:55 AM, Greeley, Weather by CustomWeather, © 2015

Note: Actual official high and low records may vary slightly from our data, if they occured in-between our weather recording intervals... More about our weather records

Advertising

Greeley weather history for previous 24 hours

 ConditionsComfort  
Time TempWeatherWind HumidityBarometerVisibility
8:55 AM
Tue, Mar 31
48 °FSunny.No wind43%30.06 "Hg10 mi
8:35 AM43 °FSunny.No wind46%30.06 "Hg10 mi
8:15 AM41 °FSunny.No wind49%30.06 "Hg10 mi
7:55 AM37 °FSunny.No wind52%30.06 "Hg10 mi
7:35 AM36 °FClear.No wind48%30.06 "Hg10 mi
7:15 AM30 °FClear.5 mph51%30.06 "Hg10 mi
6:55 AM28 °FClear.No wind51%30.06 "Hg10 mi
6:35 AM30 °FClear.No wind51%30.06 "HgN/A
6:15 AM30 °FClear.No wind55%30.06 "Hg10 mi
5:55 AM30 °FClear.No wind51%30.05 "Hg10 mi
5:35 AM30 °FClear.6 mph51%30.05 "Hg10 mi
5:15 AM32 °FClear.3 mph51%30.05 "Hg10 mi
4:55 AM34 °FClear.5 mph48%30.06 "Hg10 mi
4:35 AM34 °FClear.5 mph48%30.06 "Hg10 mi
4:15 AM34 °FClear.8 mph48%30.05 "Hg10 mi
3:55 AM30 °FClear.6 mph51%30.05 "Hg10 mi
3:35 AM32 °FClear.7 mph47%30.06 "Hg10 mi
3:15 AM34 °FClear.9 mph48%30.06 "Hg10 mi
2:55 AM34 °FClear.7 mph48%30.07 "Hg10 mi
2:35 AM36 °FClear.5 mph44%30.07 "Hg10 mi
2:15 AM36 °FClear.8 mph44%30.07 "Hg10 mi
1:55 AM36 °FClear.9 mph48%30.07 "Hg10 mi
1:35 AM36 °FClear.3 mph44%30.07 "Hg10 mi
1:15 AM39 °FClear.7 mph45%30.08 "Hg10 mi
12:55 AM41 °FClear.10 mph45%30.08 "Hg10 mi
12:35 AM39 °FClear.7 mph45%30.08 "Hg10 mi
12:15 AM41 °FClear.No wind42%30.09 "Hg10 mi
11:55 PM
Mon, Mar 30
39 °FClear.No wind39%30.09 "Hg10 mi
11:35 PM45 °FClear.No wind34%30.10 "Hg10 mi
11:15 PM45 °FClear.No wind34%30.10 "Hg10 mi
10:55 PM46 °FClear.5 mph37%30.10 "Hg10 mi
10:35 PM48 °FClear.6 mph34%30.10 "Hg10 mi
10:15 PM52 °FClear.3 mph30%30.10 "Hg10 mi
9:55 PM52 °FClear.8 mph28%30.10 "Hg10 mi
9:35 PM55 °FClear.6 mph24%30.09 "Hg10 mi
9:15 PM54 °FClear.3 mph26%30.09 "Hg9 mi
8:55 PM55 °FClear.8 mph24%30.08 "Hg10 mi
8:35 PM57 °FClear.7 mph23%30.07 "Hg10 mi
8:15 PM61 °FSunny.7 mph20%30.06 "Hg3 mi
7:55 PM63 °FSunny.6 mph20%30.06 "Hg2 mi
7:35 PM63 °FSunny.6 mph20%30.05 "Hg1 mi
7:15 PM66 °FSunny.6 mph17%30.04 "Hg2 mi
6:55 PM68 °FSunny.9 mph17%30.04 "Hg2 mi
6:35 PM70 °FSunny.9 mph15%30.03 "Hg2 mi
6:15 PM72 °FSunny.9 mph14%30.03 "Hg5 mi
5:55 PM72 °FSunny.12 mph14%30.03 "Hg10 mi
5:35 PM73 °FSunny.8 mph12%30.03 "Hg10 mi
5:15 PM73 °FSunny.No wind12%30.02 "Hg10 mi
4:55 PM75 °FSunny.3 mph11%30.03 "Hg10 mi
4:35 PM75 °FSunny.7 mph11%30.03 "Hg10 mi
4:15 PM75 °FSunny.9 mph12%30.04 "Hg10 mi
3:55 PM75 °FSunny.6 mph12%30.04 "Hg10 mi
3:35 PM73 °FSunny.No wind13%30.05 "Hg10 mi
3:15 PM73 °FSunny.5 mph13%30.06 "Hg10 mi
2:55 PM73 °FSunny.6 mph13%30.06 "Hg10 mi
2:35 PM75 °FSunny.9 mph12%30.07 "Hg10 mi
2:15 PM73 °FSunny.10 mph13%30.07 "Hg10 mi
1:55 PM72 °FSunny.5 mph14%30.09 "Hg10 mi
1:35 PM73 °FSunny.5 mph13%30.10 "Hg10 mi
1:15 PM70 °FSunny.No wind15%30.11 "Hg10 mi
12:55 PM73 °FSunny.5 mph13%30.12 "Hg10 mi
12:35 PM70 °FSunny.No wind15%30.13 "Hg10 mi
12:15 PM68 °FSunny.No wind17%30.13 "Hg10 mi
11:55 AM70 °FSunny.6 mph17%30.14 "Hg10 mi
11:35 AM66 °FSunny.No wind21%30.14 "Hg10 mi
11:15 AM64 °FSunny.3 mph22%30.15 "Hg10 mi
10:55 AM63 °FSunny.No wind24%30.15 "Hg10 mi
10:35 AM63 °FSunny.5 mph25%30.15 "Hg10 mi
10:15 AM59 °FSunny.No wind29%30.15 "Hg10 mi
Weather by CustomWeather, © 2015

See weather overviewHow to use our weather pages